sat.trackr.live / text

‹ back to catalog

STARLINK-31064

NORAD 58631 · 2023-203P

PAYLOAD ACTIVE UNKNOWN

§ Identity

Operator
Country
US
Launch date
2023-12-23
Launch site
AFETR
Launch vehicle
Mass (kg)
RCS (m²)

Purposes: comms

External: N2YO · Heavens-Above · Gunter

§ Orbital elements

Epoch: 2026-05-24T21:45:45.880992Z

Period
94.27 min
Inclination
43.0052°
Eccentricity
0.0000799
Mean motion
15.27580937 rev/d
Perigee alt
482.5 km
Apogee alt
483.6 km
Semi-major
6,861.2 km
B*
2.6434e-5
RAAN
0.4533°
Arg perigee
278.0315°
Mean anomaly
82.0446°
Rev number
13,634

§ Raw data

STARLINK-310641 58631U 23203P   26144.90678103  .00000466  00000+0  26434-4 0  99922 58631  43.0052   0.4533 0000799 278.0315  82.0446 15.27580937136343

JSON: /api/v1/satellites/58631 · /tle

For live sub-satellite position, see the globe view (requires WebGL).

§ Visibility from observer

Set your observer location to see the next 7 days of passes ≥ 10°. The values pass through the URL so the page stays shareable.

No JS? Fill the form by hand. The geolocation button needs JavaScript.